Estación de Las Viñas

Ultimos registro cada 15 minutos 35
Estación Fecha / Hora Temperatura Humedad Lluvia Velocidad Dirección Radiación Presion
35 Las Viñas 01-09-2026 08:30 8,3 73 0 0 355 60 1023,6
34 Las Viñas 01-09-2026 08:15 7,9 73 0 0 355 58 1023,8
33 Las Viñas 01-09-2026 08:00 7,5 73 0 0 355 37 1023,5
32 Las Viñas 01-09-2026 07:45 7,2 74 0 0 355 25 1023,2
31 Las Viñas 01-09-2026 07:30 7,1 75 0 0 355 14 1023
30 Las Viñas 01-09-2026 07:15 7 75 0 0 355 5 1022,8
29 Las Viñas 01-09-2026 07:00 6,9 76 0 0 355 0 1022,8
28 Las Viñas 01-09-2026 06:45 6,9 77 0 0 355 0 1022,9
27 Las Viñas 01-09-2026 06:30 7,1 77 0 0 355 0 1023
26 Las Viñas 01-09-2026 06:15 7,3 77 0 0 355 0 1022,8
25 Las Viñas 01-09-2026 06:00 7,7 77 0 0 355 0 1022,7
24 Las Viñas 01-09-2026 05:45 7,9 76 0 0 355 0 1022,5
23 Las Viñas 01-09-2026 05:30 8,2 76 0 0 355 0 1022,5
22 Las Viñas 01-09-2026 05:15 8,3 75 0 0 355 0 1022,4
21 Las Viñas 01-09-2026 05:00 8,4 75 0 0 355 0 1022,3
20 Las Viñas 01-09-2026 04:45 8,2 76 0 0 355 0 1022,3
19 Las Viñas 01-09-2026 04:30 8,4 76 0 0 355 0 1022,4
18 Las Viñas 01-09-2026 04:15 8,5 76 0 0 355 0 1022,4
17 Las Viñas 01-09-2026 04:00 8,7 76 0 0 355 0 1022,5
16 Las Viñas 01-09-2026 03:45 8,8 76 0 0 355 0 1022,4
15 Las Viñas 01-09-2026 03:30 8,9 76 0 0 355 0 1022,5
14 Las Viñas 01-09-2026 03:15 9 76 0 0 355 0 1022,8
13 Las Viñas 01-09-2026 03:00 9 76 0 0 355 0 1022,9
12 Las Viñas 01-09-2026 02:45 9 77 0 0 355 0 1023,2
11 Las Viñas 01-09-2026 02:30 9,1 76 0 0 355 0 1023,2
10 Las Viñas 01-09-2026 02:15 9,1 77 0 0 355 0 1023,5
9 Las Viñas 01-09-2026 02:00 9,1 78 0 0 355 0 1023,6
8 Las Viñas 01-09-2026 01:45 9,1 78 0 0 355 0 1023,6
7 Las Viñas 01-09-2026 01:30 9,2 79 0 0 355 0 1023,7
6 Las Viñas 01-09-2026 01:15 9,3 79 0 0 355 0 1023,9
5 Las Viñas 01-09-2026 01:00 9,4 79 0 0 355 0 1023,7
4 Las Viñas 01-09-2026 00:45 9,6 80 0 0 355 0 1023,7
3 Las Viñas 01-09-2026 00:30 9,7 81 0 0 355 0 1024
2 Las Viñas 01-09-2026 00:15 9,9 81 0 0 355 0 1024
1 Las Viñas 01-09-2026 00:00 10,1 81 0 0 355 0 1024,3